Year,Month,Day,Hour,Minute,Value (Times are PST for temperature in C)
2012,10,01,00,00,9.40
2012,10,01,00,01,9.40
2012,10,01,00,02,9.40
2012,10,01,00,03,9.40
2012,10,01,00,04,9.40
2012,10,01,00,05,9.40
2012,10,01,00,06,9.40
2012,10,01,00,07,9.40
2012,10,01,00,08,9.40
2012,10,01,00,09,9.40
2012,10,01,00,10,9.40
2012,10,01,00,11,9.40
2012,10,01,00,12,9.40
2012,10,01,00,13,9.40
2012,10,01,00,14,9.40
2012,10,01,00,15,9.30
2012,10,01,00,16,9.30
2012,10,01,00,17,9.30
2012,10,01,00,18,9.30
2012,10,01,00,19,9.30
2012,10,01,00,20,9.30
2012,10,01,00,21,9.30
2012,10,01,00,22,9.30
2012,10,01,00,23,9.30
2012,10,01,00,24,9.20
2012,10,01,00,25,9.20
2012,10,01,00,26,9.20
2012,10,01,00,27,9.20
2012,10,01,00,28,9.20
2012,10,01,00,29,9.20
2012,10,01,00,30,9.20
2012,10,01,00,31,9.20
2012,10,01,00,32,9.20
2012,10,01,00,33,9.20
2012,10,01,00,34,9.20
2012,10,01,00,35,9.20
2012,10,01,00,36,9.20
2012,10,01,00,37,9.20
2012,10,01,00,38,9.20
2012,10,01,00,39,9.20
2012,10,01,00,40,9.20
2012,10,01,00,41,9.20
2012,10,01,00,42,9.20
2012,10,01,00,43,9.20
2012,10,01,00,44,9.20
2012,10,01,00,45,9.20
2012,10,01,00,46,9.20
2012,10,01,00,47,9.20
2012,10,01,00,48,9.20
2012,10,01,00,49,9.20
2012,10,01,00,50,9.20
2012,10,01,00,51,9.20
2012,10,01,00,52,9.20
2012,10,01,00,53,9.20
2012,10,01,00,54,9.20
2012,10,01,00,55,9.20
2012,10,01,00,56,9.20
2012,10,01,00,57,9.20
2012,10,01,00,58,9.10
2012,10,01,00,59,9.10
2012,10,01,01,00,9.10
2012,10,01,01,01,9.10
2012,10,01,01,02,9.10
2012,10,01,01,03,9.10
2012,10,01,01,04,9.10
2012,10,01,01,05,9.10
2012,10,01,01,06,9.10
2012,10,01,01,07,9.10
2012,10,01,01,08,9.10
2012,10,01,01,09,9.00
2012,10,01,01,10,9.00
2012,10,01,01,11,9.00
2012,10,01,01,12,9.10
2012,10,01,01,13,9.10
2012,10,01,01,14,9.10
2012,10,01,01,15,9.10
2012,10,01,01,16,9.10
2012,10,01,01,17,9.10
2012,10,01,01,18,9.10
2012,10,01,01,19,9.10
2012,10,01,01,20,9.10
2012,10,01,01,21,9.10
2012,10,01,01,22,9.10
2012,10,01,01,23,9.10
2012,10,01,01,24,9.10
2012,10,01,01,25,9.10
2012,10,01,01,26,9.00
2012,10,01,01,27,9.00
2012,10,01,01,28,9.00
2012,10,01,01,29,9.10
2012,10,01,01,30,9.10
2012,10,01,01,31,9.20
2012,10,01,01,32,9.20
2012,10,01,01,33,9.20
2012,10,01,01,34,9.20
2012,10,01,01,35,9.20
2012,10,01,01,36,9.20
2012,10,01,01,37,9.20
2012,10,01,01,38,9.20
2012,10,01,01,39,9.20
2012,10,01,01,40,9.20
2012,10,01,01,41,9.20
2012,10,01,01,42,9.20
2012,10,01,01,43,9.10
2012,10,01,01,44,9.10
2012,10,01,01,45,9.10
2012,10,01,01,46,9.00
2012,10,01,01,47,9.00
2012,10,01,01,48,9.00
2012,10,01,01,49,8.90
2012,10,01,01,50,8.90
2012,10,01,01,51,8.90
2012,10,01,01,52,8.80
2012,10,01,01,53,8.80
2012,10,01,01,54,8.80
2012,10,01,01,55,8.80
2012,10,01,01,56,8.80
2012,10,01,01,57,8.70
2012,10,01,01,58,8.70
2012,10,01,01,59,8.70
2012,10,01,02,00,8.80
2012,10,01,02,01,8.80
2012,10,01,02,02,8.80
2012,10,01,02,03,8.80
2012,10,01,02,04,8.80
2012,10,01,02,05,8.80
2012,10,01,02,06,8.80
2012,10,01,02,07,8.80
2012,10,01,02,08,8.80
2012,10,01,02,09,8.70
2012,10,01,02,10,8.70
2012,10,01,02,11,8.70
2012,10,01,02,12,8.70
2012,10,01,02,13,8.70
2012,10,01,02,14,8.70
2012,10,01,02,15,8.70
2012,10,01,02,16,8.70
2012,10,01,02,17,8.70
2012,10,01,02,18,8.70
2012,10,01,02,19,8.70
2012,10,01,02,20,8.70
2012,10,01,02,21,8.70
2012,10,01,02,22,8.70
2012,10,01,02,23,8.70
2012,10,01,02,24,8.70
2012,10,01,02,25,8.70
2012,10,01,02,26,8.70
2012,10,01,02,27,8.70
2012,10,01,02,28,8.60
2012,10,01,02,29,8.60
2012,10,01,02,30,8.60
2012,10,01,02,31,8.60
2012,10,01,02,32,8.50
2012,10,01,02,33,8.50
2012,10,01,02,34,8.40
2012,10,01,02,35,8.40
2012,10,01,02,36,8.40
2012,10,01,02,37,8.30
2012,10,01,02,38,8.30
2012,10,01,02,39,8.30
2012,10,01,02,40,8.30
2012,10,01,02,41,8.30
2012,10,01,02,42,8.20
2012,10,01,02,43,8.20
2012,10,01,02,44,8.20
2012,10,01,02,45,8.20
2012,10,01,02,46,8.20
2012,10,01,02,47,8.20
2012,10,01,02,48,8.20
2012,10,01,02,49,8.20
2012,10,01,02,50,8.20
2012,10,01,02,51,8.20
2012,10,01,02,52,8.20
2012,10,01,02,53,8.20
2012,10,01,02,54,8.20
2012,10,01,02,55,8.20
2012,10,01,02,56,8.20
2012,10,01,02,57,8.20
2012,10,01,02,58,8.20
2012,10,01,02,59,8.20
2012,10,01,03,00,8.20
2012,10,01,03,01,8.20
2012,10,01,03,02,8.20
2012,10,01,03,03,8.20
2012,10,01,03,04,8.20
2012,10,01,03,05,8.20
2012,10,01,03,06,8.20
2012,10,01,03,07,8.20
2012,10,01,03,08,8.20
2012,10,01,03,09,8.20
2012,10,01,03,10,8.20
2012,10,01,03,11,8.20
2012,10,01,03,12,8.20
2012,10,01,03,13,8.20
2012,10,01,03,14,8.20
2012,10,01,03,15,8.20
2012,10,01,03,16,8.20
2012,10,01,03,17,8.20
2012,10,01,03,18,8.20
2012,10,01,03,19,8.20
2012,10,01,03,20,8.20
2012,10,01,03,21,8.20
2012,10,01,03,22,8.20
2012,10,01,03,23,8.20
2012,10,01,03,24,8.20
2012,10,01,03,25,8.20
2012,10,01,03,26,8.10
2012,10,01,03,27,8.10
2012,10,01,03,28,8.10
2012,10,01,03,29,8.10
2012,10,01,03,30,8.10
2012,10,01,03,31,8.10
2012,10,01,03,32,8.10
2012,10,01,03,33,8.10
2012,10,01,03,34,8.00
2012,10,01,03,35,8.00
2012,10,01,03,36,8.00
2012,10,01,03,37,8.00
2012,10,01,03,38,8.00
2012,10,01,03,39,8.00
2012,10,01,03,40,8.00
2012,10,01,03,41,8.00
2012,10,01,03,42,8.00
2012,10,01,03,43,8.00
2012,10,01,03,44,8.00
2012,10,01,03,45,8.00
2012,10,01,03,46,8.00
2012,10,01,03,47,8.10
2012,10,01,03,48,8.10
2012,10,01,03,49,8.10
2012,10,01,03,50,8.10
2012,10,01,03,51,8.10
2012,10,01,03,52,8.10
2012,10,01,03,53,8.10
2012,10,01,03,54,8.10
2012,10,01,03,55,8.10
2012,10,01,03,56,8.10
2012,10,01,03,57,8.10
2012,10,01,03,58,8.10
2012,10,01,03,59,8.10
2012,10,01,04,00,8.10
2012,10,01,04,01,8.00
2012,10,01,04,02,8.00
2012,10,01,04,03,8.00
2012,10,01,04,04,8.00
2012,10,01,04,05,8.00
2012,10,01,04,06,8.00
2012,10,01,04,07,8.00
2012,10,01,04,08,8.00
2012,10,01,04,09,7.90
2012,10,01,04,10,7.90
2012,10,01,04,11,7.90
2012,10,01,04,12,7.90
2012,10,01,04,13,7.90
2012,10,01,04,14,7.90
2012,10,01,04,15,7.90
2012,10,01,04,16,7.90
2012,10,01,04,17,7.90
2012,10,01,04,18,7.90
2012,10,01,04,19,7.90
2012,10,01,04,20,7.90
2012,10,01,04,21,7.80
2012,10,01,04,22,7.80
2012,10,01,04,23,7.80
2012,10,01,04,24,7.80
2012,10,01,04,25,7.80
2012,10,01,04,26,7.80
2012,10,01,04,27,7.80
2012,10,01,04,28,7.80
2012,10,01,04,29,7.80
2012,10,01,04,30,7.80
2012,10,01,04,31,7.80
2012,10,01,04,32,7.80
2012,10,01,04,33,7.80
2012,10,01,04,34,7.90
2012,10,01,04,35,7.90
2012,10,01,04,36,7.90
2012,10,01,04,37,8.00
2012,10,01,04,38,8.00
2012,10,01,04,39,8.00
2012,10,01,04,40,8.00
2012,10,01,04,41,8.00
2012,10,01,04,42,8.00
2012,10,01,04,43,8.00
2012,10,01,04,44,8.00
2012,10,01,04,45,8.00
2012,10,01,04,46,7.90
2012,10,01,04,47,7.90
2012,10,01,04,48,7.90
2012,10,01,04,49,7.90
2012,10,01,04,50,7.90
2012,10,01,04,51,7.90
2012,10,01,04,52,7.90
2012,10,01,04,53,7.80
2012,10,01,04,54,7.80
2012,10,01,04,55,7.80
2012,10,01,04,56,7.80
2012,10,01,04,57,7.80
2012,10,01,04,58,7.80
2012,10,01,04,59,7.80
2012,10,01,05,00,7.80
2012,10,01,05,01,7.80
2012,10,01,05,02,7.80
2012,10,01,05,03,7.80
2012,10,01,05,04,7.80
2012,10,01,05,05,7.90
2012,10,01,05,06,7.90
2012,10,01,05,07,7.90
2012,10,01,05,08,7.90
2012,10,01,05,09,7.90
2012,10,01,05,10,8.00
2012,10,01,05,11,8.00
2012,10,01,05,12,8.00
2012,10,01,05,13,8.00
2012,10,01,05,14,8.00
2012,10,01,05,15,8.10
2012,10,01,05,16,8.10
2012,10,01,05,17,8.10
2012,10,01,05,18,8.10
2012,10,01,05,19,8.10
2012,10,01,05,20,8.10
2012,10,01,05,21,8.10
2012,10,01,05,22,8.10
2012,10,01,05,23,8.00
2012,10,01,05,24,8.00
2012,10,01,05,25,8.00
2012,10,01,05,26,8.00
2012,10,01,05,27,8.00
2012,10,01,05,28,7.90
2012,10,01,05,29,7.90
2012,10,01,05,30,7.90
2012,10,01,05,31,7.90
2012,10,01,05,32,7.90
2012,10,01,05,33,7.90
2012,10,01,05,34,7.90
2012,10,01,05,35,8.00
2012,10,01,05,36,8.00
2012,10,01,05,37,8.00
2012,10,01,05,38,8.00
2012,10,01,05,39,8.00
2012,10,01,05,40,8.00
2012,10,01,05,41,8.00
2012,10,01,05,42,8.00
2012,10,01,05,43,8.00
2012,10,01,05,44,8.00
2012,10,01,05,45,8.00
2012,10,01,05,46,7.90
2012,10,01,05,47,7.90
2012,10,01,05,48,7.90
2012,10,01,05,49,7.90
2012,10,01,05,50,7.80
2012,10,01,05,51,7.80
2012,10,01,05,52,7.80
2012,10,01,05,53,7.80
2012,10,01,05,54,7.80
2012,10,01,05,55,7.70
2012,10,01,05,56,7.70
2012,10,01,05,57,7.70
2012,10,01,05,58,7.70
2012,10,01,05,59,7.70
2012,10,01,06,00,7.70
2012,10,01,06,01,7.70
2012,10,01,06,02,7.70
2012,10,01,06,03,7.70
2012,10,01,06,04,7.70
2012,10,01,06,05,7.70
2012,10,01,06,06,7.70
2012,10,01,06,07,7.70
2012,10,01,06,08,7.70
2012,10,01,06,09,7.70
2012,10,01,06,10,7.70
2012,10,01,06,11,7.70
2012,10,01,06,12,7.70
2012,10,01,06,13,7.70
2012,10,01,06,14,7.70
2012,10,01,06,15,7.80
2012,10,01,06,16,7.80
2012,10,01,06,17,7.80
2012,10,01,06,18,7.80
2012,10,01,06,19,7.80
2012,10,01,06,20,7.80
2012,10,01,06,21,7.80
2012,10,01,06,22,7.80
2012,10,01,06,23,7.80
2012,10,01,06,24,7.80
2012,10,01,06,25,7.80
2012,10,01,06,26,7.80
2012,10,01,06,27,7.80
2012,10,01,06,28,7.80
2012,10,01,06,29,7.80
2012,10,01,06,30,7.70
2012,10,01,06,31,7.70
2012,10,01,06,32,7.70
2012,10,01,06,33,7.70
2012,10,01,06,34,7.60
2012,10,01,06,35,7.60
2012,10,01,06,36,7.60
2012,10,01,06,37,7.60
2012,10,01,06,38,7.60
2012,10,01,06,39,7.60
2012,10,01,06,40,7.50
2012,10,01,06,41,7.50
2012,10,01,06,42,7.50
2012,10,01,06,43,7.50
2012,10,01,06,44,7.50
2012,10,01,06,45,7.50
2012,10,01,06,46,7.50
2012,10,01,06,47,7.50
2012,10,01,06,48,7.50
2012,10,01,06,49,7.50
2012,10,01,06,50,7.50
2012,10,01,09,40,13.20
2012,10,01,09,41,13.20
2012,10,01,09,42,13.20
2012,10,01,09,43,13.20
2012,10,01,09,44,13.20
2012,10,01,09,45,13.20
2012,10,01,09,46,13.20
2012,10,01,09,47,13.20
2012,10,01,09,48,13.30
2012,10,01,09,49,13.30
2012,10,01,09,50,13.30
2012,10,01,09,51,13.30
2012,10,01,09,52,13.40
2012,10,01,09,53,13.50
2012,10,01,09,54,13.50
2012,10,01,09,55,13.60
2012,10,01,09,56,13.60
2012,10,01,09,57,13.70
2012,10,01,09,58,13.70
2012,10,01,09,59,13.70
2012,10,01,10,00,13.80
2012,10,01,10,01,13.80
2012,10,01,10,02,13.80
2012,10,01,10,03,13.90
2012,10,01,10,04,13.90
2012,10,01,10,05,13.90
2012,10,01,10,06,14.00
2012,10,01,10,07,14.00
2012,10,01,10,08,14.00
2012,10,01,10,09,14.10
2012,10,01,10,10,14.10
2012,10,01,10,11,14.20
2012,10,01,10,12,14.20
2012,10,01,10,13,14.20
2012,10,01,10,14,14.20
2012,10,01,10,15,14.30
2012,10,01,10,16,14.30
2012,10,01,10,17,14.40
2012,10,01,10,18,14.40
2012,10,01,10,19,14.40
2012,10,01,10,20,14.50
2012,10,01,10,21,14.60
2012,10,01,10,22,14.60
2012,10,01,10,23,14.70
2012,10,01,10,24,14.80
2012,10,01,10,25,14.80
2012,10,01,10,26,14.80
2012,10,01,10,27,14.80
2012,10,01,10,28,14.90
2012,10,01,10,29,15.00
2012,10,01,10,30,15.00
2012,10,01,10,31,15.00
2012,10,01,10,32,15.00
2012,10,01,10,33,15.10
2012,10,01,10,34,15.10
2012,10,01,10,35,15.10
2012,10,01,10,36,15.20
2012,10,01,10,37,15.20
2012,10,01,10,38,15.20
2012,10,01,10,39,15.30
2012,10,01,10,40,15.30
2012,10,01,10,41,15.30
2012,10,01,10,42,15.30
2012,10,01,10,43,15.30
2012,10,01,10,44,15.30
2012,10,01,10,45,15.30
2012,10,01,10,46,15.40
2012,10,01,10,47,15.40
2012,10,01,10,48,15.50
2012,10,01,10,49,15.60
2012,10,01,10,50,15.60
2012,10,01,10,51,15.70
2012,10,01,10,52,15.80
2012,10,01,10,53,15.80
2012,10,01,10,54,16.00
2012,10,01,10,55,16.10
2012,10,01,10,56,16.10
2012,10,01,10,57,16.20
2012,10,01,10,58,16.30
2012,10,01,10,59,16.40
2012,10,01,11,00,16.40
2012,10,01,11,01,16.40
2012,10,01,11,02,16.60
2012,10,01,11,03,16.60
2012,10,01,11,04,16.60
2012,10,01,11,05,16.70
2012,10,01,11,06,16.70
2012,10,01,11,07,16.70
2012,10,01,11,08,16.80
2012,10,01,11,09,16.90
2012,10,01,11,10,16.90
2012,10,01,11,11,16.80
2012,10,01,11,12,16.80
2012,10,01,11,13,16.90
2012,10,01,11,14,16.90
2012,10,01,11,15,16.90
2012,10,01,11,16,17.00
2012,10,01,11,17,17.00
2012,10,01,11,18,17.10
2012,10,01,11,19,17.20
2012,10,01,11,20,17.20
2012,10,01,11,21,17.20
2012,10,01,11,22,17.10
2012,10,01,11,23,17.10
2012,10,01,11,24,17.10
2012,10,01,11,25,17.10
2012,10,01,11,26,17.20
2012,10,01,11,27,17.30
2012,10,01,11,28,17.30
2012,10,01,11,29,17.30
2012,10,01,11,30,17.40
2012,10,01,11,31,17.50
2012,10,01,11,32,17.60
2012,10,01,11,33,17.70
2012,10,01,11,34,17.70
2012,10,01,11,35,17.80
2012,10,01,11,36,17.90
2012,10,01,11,37,17.90
2012,10,01,11,38,18.00
2012,10,01,11,39,18.10
2012,10,01,11,40,18.20
2012,10,01,11,41,18.20
2012,10,01,11,42,18.20
2012,10,01,11,43,18.40
2012,10,01,11,44,18.50
2012,10,01,11,45,18.60
2012,10,01,11,46,18.70
2012,10,01,11,47,18.80
2012,10,01,11,48,18.90
2012,10,01,11,49,18.90
2012,10,01,11,50,19.00
2012,10,01,11,51,19.10
2012,10,01,11,52,19.20
2012,10,01,11,53,19.30
2012,10,01,11,54,19.40
2012,10,01,11,55,19.60
2012,10,01,11,56,19.70
2012,10,01,11,57,19.80
2012,10,01,11,58,19.90
2012,10,01,11,59,20.10
2012,10,01,12,00,20.10
2012,10,01,12,01,20.10
2012,10,01,12,02,20.20
2012,10,01,12,03,20.20
2012,10,01,12,04,20.20
2012,10,01,12,05,20.20
2012,10,01,12,06,20.20
2012,10,01,12,07,20.40
2012,10,01,12,08,20.50
2012,10,01,12,09,20.70
2012,10,01,12,10,20.80
2012,10,01,12,11,21.00
2012,10,01,12,12,21.10
2012,10,01,12,13,21.10
2012,10,01,12,14,21.20
2012,10,01,12,15,21.20
2012,10,01,12,16,21.20
2012,10,01,12,17,21.20
2012,10,01,12,18,21.10
2012,10,01,12,19,21.20
2012,10,01,12,20,21.20
2012,10,01,12,21,21.30
2012,10,01,12,22,21.30
2012,10,01,12,23,21.30
2012,10,01,12,24,21.30
2012,10,01,12,25,21.20
2012,10,01,12,26,21.10
2012,10,01,12,27,21.10
2012,10,01,12,28,21.10
2012,10,01,12,29,21.10
2012,10,01,12,30,21.20
2012,10,01,12,31,21.20
2012,10,01,12,32,21.30
2012,10,01,12,33,21.30
2012,10,01,12,34,21.40
2012,10,01,12,35,21.50
2012,10,01,12,36,21.60
2012,10,01,12,37,21.60
2012,10,01,12,38,21.60
2012,10,01,12,39,21.60
2012,10,01,12,40,21.60
2012,10,01,12,41,21.60
2012,10,01,12,42,21.40
2012,10,01,12,43,21.50
2012,10,01,12,44,21.60
2012,10,01,12,45,21.60
2012,10,01,12,46,21.70
2012,10,01,12,47,21.80
2012,10,01,12,48,21.90
2012,10,01,12,49,22.00
2012,10,01,12,50,22.10
2012,10,01,12,51,22.20
2012,10,01,12,52,22.30
2012,10,01,12,53,22.30
2012,10,01,12,54,22.40
2012,10,01,12,55,22.40
2012,10,01,12,56,22.40
2012,10,01,12,57,22.40
2012,10,01,12,58,22.50
2012,10,01,12,59,22.50
2012,10,01,13,00,22.50
2012,10,01,13,01,22.50
2012,10,01,13,02,22.50
2012,10,01,13,03,22.50
2012,10,01,13,04,22.50
2012,10,01,13,05,22.50
2012,10,01,13,06,22.50
2012,10,01,13,07,22.50
2012,10,01,13,08,22.50
2012,10,01,13,09,22.50
2012,10,01,13,10,22.50
2012,10,01,13,11,22.50
2012,10,01,13,12,22.50
2012,10,01,13,13,22.40
2012,10,01,13,14,22.40
2012,10,01,13,15,22.40
2012,10,01,13,16,22.40
2012,10,01,13,17,22.40
2012,10,01,13,18,22.40
2012,10,01,13,19,22.40
2012,10,01,13,20,22.50
2012,10,01,13,21,22.50
2012,10,01,13,22,22.60
2012,10,01,13,23,22.60
2012,10,01,13,24,22.70
2012,10,01,13,25,22.80
2012,10,01,13,26,22.80
2012,10,01,13,27,22.90
2012,10,01,13,28,22.90
2012,10,01,13,29,22.90
2012,10,01,13,30,23.00
2012,10,01,13,31,23.10
2012,10,01,13,32,23.10
2012,10,01,13,33,23.10
2012,10,01,13,34,23.10
2012,10,01,13,35,23.10
2012,10,01,13,36,23.10
2012,10,01,13,37,23.10
2012,10,01,13,38,23.00
2012,10,01,13,39,22.90
2012,10,01,13,40,23.00
2012,10,01,13,41,23.10
2012,10,01,13,42,23.10
2012,10,01,13,43,23.10
2012,10,01,13,44,23.10
2012,10,01,13,45,23.20
2012,10,01,13,46,23.20
2012,10,01,13,47,23.30
2012,10,01,13,48,23.30
2012,10,01,13,49,23.30
2012,10,01,13,50,23.30
2012,10,01,13,51,23.30
2012,10,01,13,52,23.30
2012,10,01,13,53,23.30
2012,10,01,13,54,23.40
2012,10,01,13,55,23.40
2012,10,01,13,56,23.40
2012,10,01,13,57,23.50
2012,10,01,13,58,23.60
2012,10,01,13,59,23.60
2012,10,01,14,00,23.60
2012,10,01,14,01,23.60
2012,10,01,14,02,23.60
2012,10,01,14,03,23.60
2012,10,01,14,04,23.60
2012,10,01,14,05,23.60
2012,10,01,14,06,23.70
2012,10,01,14,07,23.70
2012,10,01,14,08,23.70
2012,10,01,14,09,23.70
2012,10,01,14,10,23.70
2012,10,01,14,11,23.70
2012,10,01,14,12,23.70
2012,10,01,14,13,23.70
2012,10,01,14,14,23.70
2012,10,01,14,15,23.70
2012,10,01,14,16,23.70
2012,10,01,14,17,23.70
2012,10,01,14,18,23.70
2012,10,01,14,19,23.70
2012,10,01,14,20,23.70
2012,10,01,14,21,23.70
2012,10,01,14,22,23.70
2012,10,01,14,23,23.70
2012,10,01,14,24,23.70
2012,10,01,14,25,23.70
2012,10,01,14,26,23.70
2012,10,01,14,27,23.70
2012,10,01,14,28,23.70
2012,10,01,14,29,23.70
2012,10,01,14,30,23.70
2012,10,01,14,31,23.60
2012,10,01,14,32,23.60
2012,10,01,14,33,23.50
2012,10,01,14,34,23.40
2012,10,01,14,35,23.40
2012,10,01,14,36,23.30
2012,10,01,14,37,23.30
2012,10,01,14,38,23.30
2012,10,01,14,39,23.30
2012,10,01,14,40,23.30
2012,10,01,14,41,23.20
2012,10,01,14,42,23.20
2012,10,01,14,43,23.20
2012,10,01,14,44,23.20
2012,10,01,14,45,23.20
2012,10,01,14,46,23.10
2012,10,01,14,47,23.10
2012,10,01,14,48,23.00
2012,10,01,14,49,22.90
2012,10,01,14,50,22.90
2012,10,01,14,51,22.80
2012,10,01,14,52,22.70
2012,10,01,14,53,22.60
2012,10,01,14,54,22.60
2012,10,01,14,55,22.50
2012,10,01,14,56,22.40
2012,10,01,14,57,22.40
2012,10,01,14,58,22.30
2012,10,01,14,59,22.30
2012,10,01,15,00,22.30
2012,10,01,15,01,22.30
2012,10,01,15,02,22.20
2012,10,01,15,03,22.20
2012,10,01,15,04,22.20
2012,10,01,15,05,22.20
2012,10,01,15,06,22.10
2012,10,01,15,07,22.10
2012,10,01,15,08,22.10
2012,10,01,15,09,22.10
2012,10,01,15,10,22.10
2012,10,01,15,11,22.10
2012,10,01,15,12,22.10
2012,10,01,15,13,22.10
2012,10,01,15,14,22.10
2012,10,01,15,15,22.10
2012,10,01,15,16,22.10
2012,10,01,15,17,22.10
2012,10,01,15,18,22.10
2012,10,01,15,19,22.10
2012,10,01,15,20,22.10
2012,10,01,15,21,22.10
2012,10,01,15,22,22.10
2012,10,01,15,23,22.10
2012,10,01,15,24,22.10
2012,10,01,15,25,22.00
2012,10,01,15,26,22.00
2012,10,01,15,27,21.90
2012,10,01,15,28,21.80
2012,10,01,15,29,21.70
2012,10,01,15,30,21.70
2012,10,01,15,31,21.60
2012,10,01,15,32,21.60
2012,10,01,15,33,21.50
2012,10,01,15,34,21.40
2012,10,01,15,35,21.40
2012,10,01,15,36,21.40
2012,10,01,15,37,21.30
2012,10,01,15,38,21.30
2012,10,01,15,39,21.30
2012,10,01,15,40,21.30
2012,10,01,15,41,21.30
2012,10,01,15,42,21.30
2012,10,01,15,43,21.30
2012,10,01,15,44,21.20
2012,10,01,15,45,21.20
2012,10,01,15,46,21.20
2012,10,01,15,47,21.30
2012,10,01,15,48,21.30
2012,10,01,15,49,21.30
2012,10,01,15,50,21.30
2012,10,01,15,51,21.30
2012,10,01,15,52,21.40
2012,10,01,15,53,21.50
2012,10,01,15,54,21.60
2012,10,01,15,55,21.60
2012,10,01,15,56,21.70
2012,10,01,15,57,21.70
2012,10,01,15,58,21.80
2012,10,01,15,59,21.80
2012,10,01,16,00,21.90
2012,10,01,16,01,21.90
2012,10,01,16,02,21.90
2012,10,01,16,03,22.00
2012,10,01,16,04,22.00
2012,10,01,16,05,22.00
2012,10,01,16,06,21.90
2012,10,01,16,07,21.90
2012,10,01,16,08,21.80
2012,10,01,16,09,21.80
2012,10,01,16,10,21.70
2012,10,01,16,11,21.60
2012,10,01,16,12,21.50
2012,10,01,16,13,21.40
2012,10,01,16,14,21.30
2012,10,01,16,15,21.30
2012,10,01,16,16,21.30
2012,10,01,16,17,21.30
2012,10,01,16,18,21.30
2012,10,01,16,19,21.30
2012,10,01,16,20,21.20
2012,10,01,16,21,21.10
2012,10,01,16,22,21.10
2012,10,01,16,23,21.00
2012,10,01,16,24,21.10
2012,10,01,16,25,21.10
2012,10,01,16,26,21.10
2012,10,01,16,27,21.10
2012,10,01,16,28,21.20
2012,10,01,16,29,21.20
2012,10,01,16,30,21.20
2012,10,01,16,31,21.20
2012,10,01,16,32,21.20
2012,10,01,16,33,21.10
2012,10,01,16,34,21.10
2012,10,01,16,35,21.10
2012,10,01,16,36,21.10
2012,10,01,16,37,21.10
2012,10,01,16,38,21.00
2012,10,01,16,39,21.00
2012,10,01,16,40,21.00
2012,10,01,16,41,21.00
2012,10,01,16,42,20.90
2012,10,01,16,43,20.90
2012,10,01,16,44,20.90
2012,10,01,16,45,20.90
2012,10,01,16,46,20.90
2012,10,01,16,47,20.80
2012,10,01,16,48,20.80
2012,10,01,16,49,20.80
2012,10,01,16,50,20.80
2012,10,01,16,51,20.70
2012,10,01,16,52,20.70
2012,10,01,16,53,20.70
2012,10,01,16,54,20.70
2012,10,01,16,55,20.60
2012,10,01,16,56,20.50
2012,10,01,16,57,20.50
2012,10,01,16,58,20.40
2012,10,01,16,59,20.30
2012,10,01,17,00,20.20
2012,10,01,17,01,20.20
2012,10,01,17,02,20.20
2012,10,01,17,03,20.20
2012,10,01,17,04,20.20
2012,10,01,17,05,20.20
2012,10,01,17,06,20.10
2012,10,01,17,07,20.00
2012,10,01,17,08,19.90
2012,10,01,17,09,19.90
2012,10,01,17,10,19.80
2012,10,01,17,11,19.60
2012,10,01,17,12,19.60
2012,10,01,17,13,19.50
2012,10,01,17,14,19.40
2012,10,01,17,15,19.40
2012,10,01,17,16,19.30
2012,10,01,17,17,19.20
2012,10,01,17,18,19.20
2012,10,01,17,19,19.10
2012,10,01,17,20,19.10
2012,10,01,17,21,19.10
2012,10,01,17,22,19.10
2012,10,01,17,23,19.10
2012,10,01,17,24,19.10
2012,10,01,17,25,19.10
2012,10,01,17,26,19.00
2012,10,01,17,27,18.90
2012,10,01,17,28,18.90
2012,10,01,17,29,18.90
2012,10,01,17,30,18.90
2012,10,01,17,31,18.90
2012,10,01,17,32,18.90
2012,10,01,17,33,18.90
2012,10,01,17,34,18.90
2012,10,01,17,35,18.80
2012,10,01,17,36,18.80
2012,10,01,17,37,18.70
2012,10,01,17,38,18.70
2012,10,01,17,39,18.70
2012,10,01,17,40,18.70
2012,10,01,17,41,18.70
2012,10,01,17,42,18.70
2012,10,01,17,43,18.70
2012,10,01,17,44,18.70
2012,10,01,17,45,18.70
2012,10,01,17,46,18.60
2012,10,01,17,47,18.60
2012,10,01,17,48,18.60
2012,10,01,17,49,18.60
2012,10,01,17,50,18.60
2012,10,01,17,51,18.60
2012,10,01,17,52,18.60
2012,10,01,17,53,18.50
2012,10,01,17,54,18.50
2012,10,01,17,55,18.50
2012,10,01,17,56,18.50
2012,10,01,17,57,18.50
2012,10,01,17,58,18.40
2012,10,01,17,59,18.40
2012,10,01,18,00,18.30
2012,10,01,18,01,18.30
2012,10,01,18,02,18.20
2012,10,01,18,03,18.20
2012,10,01,18,04,18.10
2012,10,01,18,05,18.00
2012,10,01,18,06,17.90
2012,10,01,18,07,17.90
2012,10,01,18,08,17.90
2012,10,01,18,09,17.80
2012,10,01,18,10,17.70
2012,10,01,18,11,17.70
2012,10,01,18,12,17.60
2012,10,01,18,13,17.60
2012,10,01,18,14,17.50
2012,10,01,18,15,17.50
2012,10,01,18,16,17.40
2012,10,01,18,17,17.40
2012,10,01,18,18,17.30
2012,10,01,18,19,17.30
2012,10,01,18,20,17.30
2012,10,01,18,21,17.30
2012,10,01,18,22,17.30
2012,10,01,18,23,17.20
2012,10,01,18,24,17.20
2012,10,01,18,25,17.20
2012,10,01,18,26,17.10
2012,10,01,18,27,17.10
2012,10,01,18,28,17.00
2012,10,01,18,29,17.00
2012,10,01,18,30,17.00
2012,10,01,18,31,17.00
2012,10,01,18,32,16.90
2012,10,01,18,33,16.90
2012,10,01,18,34,16.90
2012,10,01,18,35,16.80
2012,10,01,18,36,16.80
2012,10,01,18,37,16.80
2012,10,01,18,38,16.80
2012,10,01,18,39,16.80
2012,10,01,18,40,16.70
2012,10,01,18,41,16.70
2012,10,01,18,42,16.70
2012,10,01,18,43,16.70
2012,10,01,18,44,16.70
2012,10,01,18,45,16.70
2012,10,01,18,46,16.70
2012,10,01,18,47,16.70
2012,10,01,18,48,16.70
2012,10,01,18,49,16.70
2012,10,01,18,50,16.70
2012,10,01,18,51,16.60
2012,10,01,18,52,16.60
2012,10,01,18,53,16.60
2012,10,01,18,54,16.60
2012,10,01,18,55,16.60
2012,10,01,18,56,16.60
2012,10,01,18,57,16.60
2012,10,01,18,58,16.60
2012,10,01,18,59,16.60
2012,10,01,19,00,16.60
2012,10,01,19,01,16.50
2012,10,01,19,02,16.40
2012,10,01,19,03,16.40
2012,10,01,19,04,16.40
2012,10,01,19,05,16.40
2012,10,01,19,06,16.40
2012,10,01,19,07,16.40
2012,10,01,19,08,16.40
2012,10,01,19,09,16.40
2012,10,01,19,10,16.30
2012,10,01,19,11,16.30
2012,10,01,19,12,16.30
2012,10,01,19,13,16.30
2012,10,01,19,14,16.30
2012,10,01,19,15,16.20
2012,10,01,19,16,16.20
2012,10,01,19,17,16.20
2012,10,01,19,18,16.20
2012,10,01,19,19,16.10
2012,10,01,19,20,16.10
2012,10,01,19,21,16.10
2012,10,01,19,22,16.10
2012,10,01,19,23,16.10
2012,10,01,19,24,16.10
2012,10,01,19,25,16.10
2012,10,01,19,26,16.00
2012,10,01,19,27,15.90
2012,10,01,19,28,15.90
2012,10,01,19,29,15.90
2012,10,01,19,30,15.90
2012,10,01,19,31,15.90
2012,10,01,19,32,15.90
2012,10,01,19,33,15.90
2012,10,01,19,34,15.90
2012,10,01,19,35,15.90
2012,10,01,19,36,15.80
2012,10,01,19,37,15.80
2012,10,01,19,38,15.80
2012,10,01,19,39,15.80
2012,10,01,19,40,15.80
2012,10,01,19,41,15.80
2012,10,01,19,42,15.80
2012,10,01,19,43,15.70
2012,10,01,19,44,15.70
2012,10,01,19,45,15.60
2012,10,01,19,46,15.60
2012,10,01,19,47,15.60
2012,10,01,19,48,15.60
2012,10,01,19,49,15.50
2012,10,01,19,50,15.50
2012,10,01,19,51,15.50
2012,10,01,19,52,15.50
2012,10,01,19,53,15.40
2012,10,01,19,54,15.40
2012,10,01,19,55,15.40
2012,10,01,19,56,15.30
2012,10,01,19,57,15.30
2012,10,01,19,58,15.30
2012,10,01,19,59,15.30
2012,10,01,20,00,15.30
2012,10,01,20,01,15.30
2012,10,01,20,02,15.20
2012,10,01,20,03,15.20
2012,10,01,20,04,15.20
2012,10,01,20,05,15.20
2012,10,01,20,06,15.20
2012,10,01,20,07,15.20
2012,10,01,20,08,15.20
2012,10,01,20,09,15.20
2012,10,01,20,10,15.20
2012,10,01,20,11,15.20
2012,10,01,20,12,15.30
2012,10,01,20,13,15.30
2012,10,01,20,14,15.30
2012,10,01,20,15,15.30
2012,10,01,20,16,15.30
2012,10,01,20,17,15.30
2012,10,01,20,18,15.30
2012,10,01,20,19,15.30
2012,10,01,20,20,15.30
2012,10,01,20,21,15.30
2012,10,01,20,22,15.30
2012,10,01,20,23,15.30
2012,10,01,20,24,15.30
2012,10,01,20,25,15.30
2012,10,01,20,26,15.30